Simultaneous Nadir Overpasses (SNOs) Predictions

Prediction of SNOs between METOP-B and TERRA Satellite Orbit:

Table of predicted SNOs for the next 14.0 days since TLE Epoch: 6/23/2018
Index Date (METOP-B) Time (METOP-B) Lat,Lon (METOP-B) SZA (METOP-B ) Date (TERRA) Time (TERRA) Lat,Lon (TERRA) SZA (TERRA ) Distance(km) Time Diff (sec)
1 06/24/2018 13:10:37 81.35, 30.34 60.88 06/24/2018 13:11:36 81.36, 30.44 60.93 1.95 59
2 06/24/2018 14:01:17 -81.35,-162.05 119.09 06/24/2018 14:01:03 -81.36,-161.96 119.08 1.48 14
3 06/27/2018 08:44:56 81.35, 96.79 60.96 06/27/2018 08:45:51 81.36, 96.84 60.99 1.19 55
4 06/27/2018 09:35:36 -81.35, -95.60 119.01 06/27/2018 09:35:18 -81.36, -95.53 119.01 1.09 18
5 06/30/2018 04:19:16 81.35, 163.22 61.08 06/30/2018 04:20:07 81.36, 163.26 61.12 0.79 51
6 06/30/2018 05:09:56 -81.35, -29.16 118.88 06/30/2018 05:09:34 -81.36, -29.10 118.89 1.03 22
7 07/02/2018 23:53:36 81.35,-130.35 61.26 07/02/2018 23:54:23 81.36,-130.32 61.29 0.71 47
8 07/03/2018 00:44:16 -81.35, 37.27 118.70 07/03/2018 00:43:50 -81.36, 37.35 118.70 1.28 26
9 07/05/2018 19:27:55 81.35, -63.94 61.50 07/05/2018 19:28:38 81.36, -63.89 61.52 0.98 43




NCC Satellite Simultaneous Nadir Overpasses (SNOs) Prediction Service
